Temp
62 62 62 62 62 61 61 60 60 60 60 61 61 61 61 60 59 66 63 71 69 69 70 74 74 71 68 63 66 61 51 44 46 50 57 67 66 69 72 70 71 71 70 73 72
62 62 63 62 61 61 60 60 59 60 60 60 60 60 60 59 58 60 70 69 69 69 72 71 69 69 63 62 61 57 48 51 59 62 62 67 65 68 67 69 69 68 70 69 70
62 62 62 62 61 61 60 60 59 60 60 60 60 60 59 58 60 67 70 68 69 71 73 72 71 67 59 58 59 54 52 59 62 65 65 62 63 65 65 60 69 67 64 65 66
61 61 62 62 62 60 60 59 59 60 60 60 60 60 59 59 53 66 69 69 69 72 73 69 66 60 56 56 59 54 61 62 62 65 63 62 64 63 64 67 73 69 69 65 65
60 60 61 61 62 60 59 58 59 59 59 59 60 60 60 56 60 74 70 71 74 72 69 67 63 60 55 58 60 57 60 63 64 63 62 64 61 63 65 69 71 70 69 66 66
59 59 60 60 60 59 59 58 58 58 58 59 60 59 55 49 72 73 72 72 70 69 67 67 64 65 60 57 55 60 59 59 60 61 61 62 64 59 68 70 70 70 67 67 68
59 59 59 59 59 58 58 58 57 57 58 59 60 60 53 56 68 66 69 68 69 70 66 69 69 62 60 57 61 60 55 57 58 58 60 59 56 58 67 67 68 71 71 68 69
59 58 58 58 58 58 58 57 56 57 58 58 60 55 49 68 65 66 65 67 70 70 70 72 70 64 60 62 59 54 51 46 56 60 63 57 50 63 69 66 65 67 71 71 68
59 58 57 56 57 57 56 56 56 57 58 58 53 52 49 69 65 70 69 67 70 72 71 76 68 60 58 50 46 45 41 44 51 60 58 56 50 62 70 67 64 65 65 65 64
58 57 57 56 56 56 55 55 57 56 58 61 61 50 58 61 68 71 67 70 66 66 64 62 56 52 47 45 37 40 40 47 47 54 58 55 55 59 65 63 62 57 55 55 56
58 57 57 56 56 55 54 54 52 49 52 53 54 55 60 68 70 66 69 67 64 60 51 54 48 45 48 50 52 50 48 45 51 56 54 54 55 60 61 58 50 51 52 54 56
57 57 56 56 56 55 51 50 55 54 47 57 57 57 63 63 56 62 67 58 56 49 52 48 44 52 55 54 51 50 47 46 52 56 54 55 54 56 60 49 50 51 51 51 52
57 56 56 55 55 51 53 55 62 58 45 52 57 57 59 61 55 58 64 58 54 49 48 44 50 57 53 49 49 48 46 47 47 53 53 50 51 53 51 54 54 51 50 50 50
56 56 55 54 53 53 53 61 60 59 38 47 52 56 61 60 52 64 66 60 54 49 50 47 54 52 50 47 49 42 52 52 49 43 37 48 38 49 55 48 47 47 46 46 47
55 55 54 56 52 50 60 62 61 58 29 54 54 66 61 55 56 58 64 58 50 51 51 48 50 48 47 50 52 46 54 51 47 42 38 42 37 41 47 43 43 44 46 45 46
55 54 53 48 48 56 61 62 58 37 28 48 56 54 53 56 56 59 59 60 58 51 49 50 55 52 52 54 54 55 49 47 44 40 32 43 41 44 46 44 42 44 45 46 46
53 52 51 51 47 54 57 52 35 29 52 47 49 53 52 50 53 54 52 49 45 40 40 47 48 54 55 47 50 49 42 31 29 29 32 43 39 45 40 43 44 42 44 46 47
51 50 51 51 51 52 51 41 29 39 45 53 52 51 46 51 50 51 48 44 47 45 39 37 35 48 51 48 44 43 42 31 25 28 30 40 32 38 42 44 45 47 46 49 48
49 47 47 49 51 52 44 31 35 41 50 48 49 45 45 48 48 49 47 43 44 45 40 36 37 49 52 52 50 44 38 44 34 35 30 33 38 41 44 43 45 46 47 48 51
46 46 45 49 51 48 40 35 38 50 51 50 44 46 39 42 43 44 45 46 45 48 48 41 33 46 48 50 47 46 47 34 33 25 25 32 33 33 38 41 43 42 45 48 53
45 38 46 50 49 42 32 33 43 52 52 47 42 43 42 40 42 40 42 46 48 46 47 42 36 36 43 41 39 39 36 35 33 27 23 26 30 37 38 40 40 42 46 49 51
41 32 46 48 35 33 32 40 43 44 50 47 47 44 43 43 40 40 41 44 49 49 42 43 35 28 35 44 46 43 37 34 23 21 26 24 29 40 38 40 42 45 47 48 52
34 33 45 44 29 31 37 38 40 39 42 44 41 45 44 41 36 40 42 45 48 45 41 41 29 21 30 34 40 35 37 35 32 26 22 22 25 40 40 41 44 43 46 50 52
35 30 33 36 37 34 33 34 33 44 42 45 42 44 39 38 41 36 38 42 45 45 46 45 33 29 25 31 34 31 35 37 33 24 26 27 31 38 41 42 43 44 47 47 48
36 32 37 28 31 33 36 35 32 34 44 45 39 40 38 33 34 32 36 38 41 43 40 38 27 31 33 35 34 33 32 33 30 32 25 30 32 38 38 39 41 44 47 48 48
33 33 37 35 37 34 34 33 33 38 39 37 36 38 38 33 35 30 34 33 33 37 35 35 22 27 25 31 33 30 31 32 31 31 32 34 33 42 44 44 43 44 45 46 45
39 42 38 35 33 32 33 37 38 41 41 42 39 35 34 36 40 40 39 38 37 34 32 31 27 25 20 30 29 22 29 31 33 36 36 30 35 42 40 42 41 41 43 44 46
MSLP
1016.19 1016.29 1016.34 1016.38 1016.48 1016.54 1016.57 1016.52 1016.61 1016.28 1016.05 1015.82 1015.55 1014.98 1014.39 1013.84 1013.10 1012.19 1011.57 1009.74 1009.56 1009.40 1009.33 1009.38 1009.54 1009.81 1010.02 1010.33 1010.74 1011.33 1012.57 1012.55 1012.19 1011.18 1009.62 1008.30 1007.83 1006.68 1005.86 1005.74 1005.39 1005.80 1006.02 1006.18 1006.63
1015.82 1016.04 1016.11 1016.26 1016.40 1016.51 1016.42 1016.56 1016.51 1016.27 1015.90 1015.66 1015.41 1014.98 1014.29 1013.92 1013.44 1011.98 1009.77 1009.49 1009.30 1009.45 1009.44 1009.43 1009.64 1009.76 1010.23 1010.40 1010.79 1011.32 1011.86 1011.54 1011.08 1010.30 1009.16 1008.33 1008.20 1007.42 1006.46 1006.04 1005.75 1005.87 1006.38 1006.50 1006.89
1015.51 1015.72 1015.77 1016.06 1016.22 1016.39 1016.36 1016.41 1016.45 1016.19 1015.84 1015.57 1015.26 1014.99 1014.19 1013.84 1013.10 1010.70 1009.59 1009.47 1009.61 1009.67 1009.48 1009.43 1009.55 1009.89 1010.33 1010.51 1010.56 1010.88 1010.94 1010.48 1010.12 1009.62 1008.96 1008.43 1007.86 1007.34 1006.99 1006.67 1006.25 1006.20 1006.88 1007.21 1007.19
1015.07 1015.25 1015.54 1015.77 1016.01 1016.14 1016.19 1016.26 1016.34 1016.11 1015.86 1015.58 1015.17 1014.86 1014.00 1013.74 1012.47 1009.94 1009.68 1009.70 1009.58 1009.60 1009.62 1009.58 1009.82 1010.05 1010.41 1010.64 1010.53 1010.81 1010.41 1010.10 1009.52 1008.99 1008.83 1008.63 1007.81 1007.35 1006.99 1006.64 1006.19 1006.27 1006.36 1006.97 1007.40
1014.66 1014.87 1015.24 1015.54 1015.75 1015.96 1016.03 1016.08 1016.13 1015.98 1015.87 1015.50 1015.25 1014.77 1014.07 1013.63 1011.61 1009.47 1009.58 1009.56 1009.30 1009.54 1009.82 1010.01 1010.06 1010.26 1010.60 1010.52 1010.65 1010.57 1010.39 1009.88 1009.26 1009.30 1008.93 1008.47 1007.96 1007.47 1006.64 1006.61 1006.12 1006.26 1006.45 1006.48 1006.61
1014.22 1014.50 1014.93 1015.26 1015.45 1015.68 1015.77 1015.80 1015.91 1015.84 1015.78 1015.66 1015.39 1015.06 1014.66 1013.34 1009.93 1009.56 1009.70 1009.69 1009.54 1009.62 1009.74 1009.93 1010.05 1010.18 1010.53 1010.68 1010.88 1010.43 1010.32 1010.04 1009.38 1008.83 1008.46 1008.19 1007.53 1007.42 1006.40 1006.29 1006.08 1005.82 1005.93 1005.84 1005.77
1013.80 1014.15 1014.62 1014.97 1015.16 1015.35 1015.59 1015.78 1015.70 1015.84 1015.74 1015.45 1015.34 1015.10 1014.67 1011.80 1009.60 1009.73 1010.15 1009.79 1009.68 1009.53 1009.54 1009.51 1009.84 1010.31 1010.56 1010.66 1010.57 1010.56 1010.58 1010.00 1009.21 1008.67 1008.27 1007.90 1007.69 1007.35 1006.43 1006.01 1005.66 1005.17 1004.91 1005.00 1004.80
1013.42 1013.77 1014.24 1014.68 1014.93 1015.03 1015.43 1015.54 1015.33 1015.44 1015.45 1015.32 1015.16 1015.17 1013.48 1010.08 1009.63 1009.48 1009.66 1009.43 1009.25 1009.26 1009.41 1008.91 1009.24 1010.17 1010.84 1010.77 1010.87 1011.19 1011.17 1010.65 1009.12 1008.69 1007.89 1008.06 1007.55 1007.05 1006.57 1006.34 1005.73 1005.05 1004.57 1004.33 1004.10
1012.92 1013.33 1013.89 1014.36 1014.54 1014.83 1015.21 1015.24 1014.91 1015.02 1015.06 1015.13 1015.22 1014.94 1012.17 1009.73 1009.55 1008.24 1008.51 1008.84 1008.55 1008.71 1008.86 1008.87 1009.22 1010.06 1010.79 1011.30 1011.95 1011.98 1011.74 1011.24 1009.94 1008.65 1008.49 1008.11 1007.70 1007.24 1006.57 1006.18 1006.03 1005.41 1004.97 1005.25 1005.26
1012.38 1012.92 1013.45 1013.95 1014.34 1014.75 1014.95 1015.08 1014.61 1014.93 1014.71 1014.81 1014.54 1014.70 1011.16 1009.49 1008.82 1008.32 1008.33 1008.34 1008.44 1008.73 1008.93 1009.25 1009.89 1010.47 1011.42 1012.00 1012.34 1012.22 1012.26 1011.55 1010.72 1008.83 1008.48 1007.73 1007.70 1007.58 1006.84 1006.48 1006.65 1007.06 1007.04 1006.91 1006.83
1011.65 1012.50 1013.11 1013.67 1014.15 1014.62 1014.93 1014.67 1014.94 1014.99 1014.37 1012.98 1012.43 1011.62 1010.27 1009.25 1008.65 1008.58 1008.40 1008.32 1008.56 1008.99 1009.77 1009.97 1010.57 1010.63 1010.86 1011.68 1011.74 1011.88 1011.81 1011.76 1010.75 1009.88 1008.50 1007.55 1007.14 1007.10 1006.88 1007.03 1007.57 1008.01 1008.34 1007.86 1007.41
1011.19 1012.01 1012.63 1013.47 1014.15 1014.70 1014.97 1014.73 1013.57 1013.60 1013.09 1011.79 1011.58 1011.07 1009.86 1009.69 1009.61 1008.85 1008.59 1008.77 1009.07 1009.70 1010.19 1010.92 1010.72 1010.36 1010.48 1010.94 1011.52 1011.45 1011.30 1010.97 1010.46 1009.73 1009.31 1008.26 1005.90 1007.15 1007.20 1008.27 1008.58 1008.92 1009.29 1009.17 1008.62
1010.77 1011.57 1012.19 1013.31 1014.15 1014.79 1014.41 1013.80 1012.95 1013.07 1013.02 1010.85 1010.10 1009.61 1009.04 1009.42 1008.72 1008.15 1008.75 1008.78 1009.32 1009.95 1010.55 1010.98 1010.41 1010.13 1010.62 1010.87 1011.11 1011.05 1011.11 1010.73 1010.57 1010.06 1009.54 1008.91 1005.63 1007.08 1007.98 1008.59 1009.46 1009.93 1010.34 1010.07 1009.77
1010.30 1011.20 1012.04 1013.26 1014.44 1013.95 1013.62 1012.85 1013.02 1013.05 1012.94 1010.49 1009.23 1007.91 1007.94 1008.23 1008.11 1007.17 1007.79 1008.56 1009.16 1009.48 1010.36 1010.57 1009.81 1009.88 1010.30 1010.62 1010.75 1010.72 1010.32 1010.18 1010.43 1010.58 1010.50 1009.62 1007.86 1008.12 1007.95 1009.27 1010.42 1010.84 1011.01 1010.93 1010.35
1009.65 1010.70 1011.69 1012.26 1013.04 1013.11 1012.08 1012.26 1012.91 1012.94 1012.41 1008.77 1007.89 1007.02 1007.48 1008.04 1007.41 1007.08 1007.24 1008.02 1008.71 1009.10 1009.80 1009.49 1009.38 1009.56 1009.77 1009.74 1009.79 1009.85 1009.64 1009.95 1010.18 1010.69 1010.83 1010.42 1010.78 1008.20 1008.84 1010.27 1010.93 1011.24 1011.33 1011.10 1010.59
1009.10 1010.18 1011.40 1012.90 1013.32 1012.35 1011.92 1012.04 1012.79 1013.76 1010.95 1008.20 1007.33 1007.33 1007.86 1007.77 1007.43 1007.15 1007.42 1007.71 1008.21 1009.01 1009.10 1009.14 1008.86 1009.10 1008.94 1008.98 1009.41 1009.58 1009.96 1010.26 1010.52 1011.13 1011.16 1009.52 1010.43 1007.74 1009.15 1009.63 1010.93 1011.46 1011.61 1011.45 1010.96
1008.45 1009.85 1010.88 1011.67 1012.60 1012.36 1012.32 1012.58 1013.73 1012.50 1009.16 1007.87 1007.48 1007.48 1007.63 1007.81 1007.74 1007.57 1007.86 1008.16 1008.49 1009.29 1009.51 1009.29 1008.98 1008.70 1008.68 1009.11 1009.58 1009.92 1010.71 1011.69 1011.95 1012.08 1010.53 1009.81 1010.22 1008.64 1009.49 1010.26 1010.82 1011.41 1011.67 1011.52 1011.17
1007.96 1009.76 1010.72 1011.14 1011.71 1012.11 1012.97 1013.33 1012.78 1010.61 1009.21 1007.72 1007.27 1007.71 1008.06 1007.94 1008.00 1008.00 1008.31 1008.66 1008.82 1009.29 1010.04 1009.94 1009.56 1008.97 1009.23 1009.49 1009.99 1010.57 1011.23 1012.27 1012.23 1012.12 1011.58 1011.08 1010.19 1009.61 1010.38 1010.92 1011.37 1011.69 1011.43 1010.98 1010.53
1007.77 1010.22 1010.87 1011.10 1011.27 1011.87 1012.50 1012.64 1011.09 1010.35 1008.86 1008.18 1007.85 1008.02 1008.28 1008.42 1008.58 1008.70 1008.94 1009.32 1009.54 1009.77 1010.49 1010.69 1010.46 1009.71 1009.62 1009.85 1010.42 1011.17 1011.79 1012.47 1013.07 1013.23 1013.22 1011.50 1010.40 1010.23 1010.69 1011.16 1011.49 1011.75 1011.54 1011.06 1010.02
1007.93 1009.97 1010.92 1011.15 1011.18 1011.63 1012.29 1011.45 1011.00 1009.95 1009.03 1008.41 1008.33 1008.26 1008.83 1009.16 1009.45 1009.59 1009.74 1010.25 1010.33 1010.33 1010.32 1011.04 1011.33 1010.79 1010.55 1010.55 1011.08 1011.34 1012.24 1013.30 1014.30 1014.63 1013.62 1011.94 1011.30 1010.91 1011.08 1011.50 1011.87 1011.77 1011.53 1010.72 1010.03
1007.78 1009.61 1011.15 1011.11 1011.25 1011.64 1012.01 1011.56 1010.80 1010.07 1009.35 1009.17 1009.17 1009.30 1009.71 1010.06 1010.22 1010.30 1010.54 1010.95 1010.85 1011.05 1011.08 1011.65 1012.42 1012.43 1011.82 1011.59 1011.82 1012.46 1012.93 1013.98 1014.93 1015.06 1014.43 1013.06 1012.10 1011.51 1011.42 1011.66 1011.92 1011.83 1011.36 1010.95 1010.30
1007.90 1010.09 1010.99 1011.32 1012.05 1012.34 1011.95 1011.30 1011.09 1010.56 1009.91 1010.05 1010.08 1010.33 1010.61 1010.95 1011.21 1011.26 1011.26 1011.46 1011.38 1011.33 1011.98 1012.55 1013.42 1013.65 1013.18 1012.49 1012.45 1012.86 1013.25 1014.14 1015.47 1015.52 1015.11 1014.30 1012.18 1011.50 1011.64 1011.82 1011.82 1011.37 1011.39 1010.92 1009.56
1008.45 1010.56 1011.53 1011.56 1011.66 1011.86 1011.75 1011.60 1011.59 1011.45 1010.93 1010.67 1010.69 1010.79 1011.20 1011.85 1012.41 1012.31 1012.32 1012.75 1012.29 1012.29 1012.78 1013.39 1014.31 1014.84 1013.99 1013.89 1013.49 1013.69 1013.86 1014.51 1015.36 1015.59 1015.11 1014.65 1012.52 1011.71 1011.83 1011.72 1011.34 1010.96 1010.34 1009.79 1008.99
1008.21 1010.42 1012.42 1012.37 1011.81 1011.51 1011.25 1011.60 1011.78 1011.55 1011.36 1011.02 1011.17 1011.40 1012.02 1012.42 1012.78 1013.31 1013.57 1013.82 1013.60 1013.53 1013.73 1014.01 1014.90 1015.26 1015.18 1014.88 1015.13 1015.04 1014.65 1014.98 1015.51 1015.51 1014.95 1013.84 1012.96 1012.28 1011.75 1011.41 1011.12 1010.66 1010.09 1009.35 1008.59
1007.19 1009.08 1009.17 1010.68 1011.04 1011.08 1011.04 1011.42 1011.65 1011.59 1011.46 1011.25 1011.58 1011.52 1012.00 1013.01 1013.58 1013.98 1014.33 1014.68 1014.87 1014.68 1014.75 1015.16 1015.81 1016.14 1015.82 1015.67 1015.76 1015.52 1014.88 1014.94 1015.02 1014.75 1014.34 1013.41 1012.78 1012.23 1011.96 1011.40 1010.92 1010.25 1009.75 1009.17 1008.97
1007.22 1007.91 1008.61 1009.14 1010.02 1010.83 1011.28 1011.53 1011.38 1011.36 1010.92 1011.20 1011.52 1011.84 1012.06 1012.99 1013.45 1014.35 1014.71 1015.14 1015.46 1015.61 1015.57 1016.17 1016.86 1017.14 1016.59 1016.53 1016.41 1015.67 1014.84 1014.61 1014.30 1013.87 1013.18 1012.68 1012.14 1012.04 1011.65 1011.47 1011.06 1010.30 1009.74 1009.22 1009.19
1006.36 1006.93 1007.68 1009.46 1010.19 1010.63 1010.64 1010.60 1010.57 1010.66 1011.09 1011.02 1011.55 1012.23 1012.94 1013.29 1013.86 1014.49 1014.94 1015.47 1015.90 1016.35 1016.63 1017.04 1017.55 1018.18 1017.43 1017.15 1016.77 1015.71 1014.63 1014.14 1013.75 1013.20 1012.81 1012.06 1011.68 1011.53 1011.30 1011.18 1010.95 1010.26 1009.70 1009.28 1008.92
Wind_Speed
9 8 8 7 5 3 3 5 7 7 9 11 12 15 16 16 17 3 6 10 4 3 1 2 2 1 2 2 4 6 2 4 4 3 7 6 4 3 3 5 4 4 6 6 13
10 9 8 7 6 4 3 5 8 9 9 10 12 15 16 15 3 7 11 3 6 3 2 2 3 3 2 3 1 5 5 7 8 6 11 11 3 8 5 6 5 1 5 7 15
11 10 9 8 6 5 4 6 8 8 9 10 11 14 15 10 5 6 5 2 3 4 2 0 0 0 3 1 3 3 6 5 5 8 9 6 7 4 6 4 6 7 3 7 11
12 11 9 8 7 5 6 7 8 9 9 9 10 14 17 2 5 1 3 6 4 4 5 2 1 1 2 4 3 3 6 6 5 4 4 7 7 7 7 10 7 4 9 9 12
12 10 9 9 10 8 8 8 8 8 9 8 10 12 5 4 11 5 3 2 3 3 1 2 1 1 3 2 4 5 5 7 7 7 6 7 9 10 12 11 11 6 7 12 14
12 10 10 10 9 9 8 8 9 9 9 9 9 10 1 3 5 3 3 7 2 2 3 3 3 3 4 3 2 3 5 8 7 9 6 8 12 3 15 7 10 9 12 14 17
13 11 11 11 10 8 8 9 9 10 8 8 8 1 2 17 3 3 6 4 4 3 4 5 4 2 2 6 1 3 8 9 4 5 6 2 6 5 13 7 11 15 12 13 19
14 12 11 11 10 7 7 9 10 9 8 8 4 1 9 7 5 7 7 5 9 8 6 8 8 5 4 3 7 6 3 7 0 7 9 2 8 9 10 8 13 14 15 10 15
15 13 12 11 9 7 7 10 12 9 9 6 2 3 11 7 5 8 8 5 3 5 5 3 6 6 2 3 5 2 5 5 9 6 6 3 5 10 18 10 10 11 12 13 13
17 15 13 11 9 5 6 8 7 6 3 3 3 3 4 4 3 3 5 3 2 3 3 2 4 4 3 4 6 3 3 4 6 6 16 20 12 6 9 8 8 10 11 11 11
19 17 14 11 9 3 4 4 3 2 3 9 6 5 5 5 3 2 3 4 3 4 4 1 4 9 9 7 7 5 10 10 12 11 17 17 16 13 8 4 6 7 7 9 9
20 19 15 12 8 6 4 2 4 2 7 10 14 13 12 5 5 4 2 3 3 5 3 4 6 8 5 5 7 11 13 15 9 8 6 19 28 6 7 3 3 6 9 12 14
21 19 16 13 10 4 4 6 2 2 3 7 8 8 7 11 11 11 6 3 4 4 4 6 6 2 4 3 6 8 10 11 12 9 7 9 27 9 5 6 8 9 6 9 11
22 20 18 15 3 5 4 6 3 3 4 8 5 8 6 7 6 8 14 8 5 11 8 7 9 10 9 7 6 8 9 12 8 2 5 3 13 4 12 8 7 7 8 8 8
23 22 22 11 3 5 5 8 5 3 6 4 4 4 6 6 2 3 6 4 9 7 7 8 6 4 5 6 7 8 6 5 2 4 4 6 4 3 8 4 2 3 5 6 6
25 24 21 5 2 4 1 9 3 6 11 4 5 6 5 3 2 2 4 4 5 4 2 7 2 3 7 3 4 3 3 4 1 3 7 11 11 21 8 5 4 1 6 8 8
28 26 16 10 6 4 1 5 5 6 4 6 5 6 5 5 3 3 5 5 6 5 3 2 5 4 3 3 2 3 4 3 3 2 11 5 7 16 4 4 4 1 5 7 8
28 25 11 4 5 4 4 5 5 8 7 3 4 6 7 6 1 4 3 4 1 4 2 3 6 3 2 3 3 0 5 5 6 6 5 5 7 5 4 5 3 2 5 6 7
30 6 7 4 6 7 8 4 8 5 1 1 1 5 5 2 3 1 0 0 1 3 7 5 5 1 4 4 4 0 3 0 1 1 4 5 6 2 6 4 3 3 5 8 8
9 6 4 5 4 6 5 7 6 4 3 1 5 1 5 2 3 2 1 4 3 5 2 2 4 4 3 4 4 3 2 1 1 5 11 7 6 6 6 6 4 5 6 9 11
7 7 3 5 2 5 6 5 8 1 4 2 2 3 3 4 2 2 3 1 4 2 6 3 3 3 3 2 5 1 2 2 1 4 6 13 7 3 1 3 3 7 7 16 17
5 6 4 1 5 2 5 7 3 1 3 3 3 4 2 3 3 2 4 2 4 2 3 1 3 4 7 5 3 5 6 7 5 7 5 3 10 2 2 3 6 7 10 20 18
5 5 3 3 6 5 7 8 5 5 3 3 3 2 3 2 3 1 2 6 8 4 3 3 0 4 7 2 4 1 2 3 3 1 4 4 5 3 4 7 9 9 11 11 14
6 6 3 2 3 4 6 6 5 8 2 2 4 4 4 3 3 4 2 4 7 4 10 1 4 6 10 6 2 5 9 7 5 4 7 13 18 16 13 9 5 7 7 9 8
4 3 5 9 7 6 5 6 7 6 10 8 2 6 7 5 3 3 1 2 4 7 4 3 3 2 5 7 5 8 14 13 12 12 10 11 17 15 5 6 7 6 7 10 5
6 5 2 8 12 10 11 11 14 10 8 6 8 7 6 6 5 6 5 1 2 5 3 3 3 2 6 3 8 15 14 12 13 12 14 16 11 8 4 5 7 8 8 6 4
2 4 5 11 9 9 10 11 12 9 6 5 12 7 6 6 6 6 4 5 5 4 3 2 3 2 9 6 8 11 14 13 12 14 14 14 10 11 4 5 7 8 6 5 5
Wind_Direction
230 232 236 238 240 255 315 336 321 328 336 338 335 328 326 330 319 311 259 225 175 151 145 334 294 315 48 211 170 136 332 258 261 267 250 292 298 282 265 270 326 151 159 218 129
221 226 231 238 240 249 291 305 316 328 337 337 334 328 325 337 332 278 255 262 235 200 180 211 280 5 313 268 132 135 168 241 197 237 281 293 321 293 307 301 302 23 32 106 134
219 222 224 229 232 254 283 307 313 317 326 332 338 327 320 330 347 250 358 145 12 307 319 258 270 217 236 138 228 195 208 238 243 237 265 286 301 227 261 296 285 294 174 161 159
213 217 221 222 219 255 272 287 296 310 319 334 341 328 319 353 290 321 356 12 31 5 344 355 4 208 235 233 228 248 242 249 261 264 315 295 282 293 218 248 257 259 202 167 186
211 213 217 218 234 244 262 275 291 303 316 335 338 335 356 23 252 299 21 17 13 38 301 326 250 224 240 265 319 233 265 309 296 292 265 260 258 260 278 273 286 282 198 196 203
207 208 211 217 213 236 259 279 294 304 319 331 337 326 34 257 249 240 347 344 324 160 218 168 227 197 261 258 195 298 300 288 303 291 254 272 293 58 297 279 284 268 211 211 210
204 202 203 208 219 236 264 285 295 298 310 316 315 297 210 240 226 311 329 271 236 192 213 194 180 142 337 320 226 269 317 311 244 261 287 269 321 282 283 293 281 287 266 216 215
202 195 193 207 219 237 266 281 284 292 298 296 293 210 245 253 268 277 162 265 240 237 224 238 166 160 181 271 345 343 333 309 173 335 278 136 285 281 294 294 284 284 287 265 232
193 184 187 201 214 233 270 285 283 291 277 256 234 205 263 299 271 250 162 217 184 210 207 166 128 155 186 127 354 341 249 256 308 227 274 157 303 310 304 296 290 297 312 347 352
184 180 186 194 204 224 294 284 290 327 202 196 263 324 256 262 291 293 180 210 186 103 52 115 72 136 60 110 225 233 223 264 258 286 316 302 289 269 289 298 307 3 8 13 9
178 180 183 186 184 151 10 351 337 261 240 204 194 241 284 300 311 21 10 9 109 86 170 248 123 205 207 198 230 282 272 261 272 284 300 289 286 299 267 342 46 16 5 19 22
179 179 172 169 155 124 99 212 229 196 299 236 245 252 254 64 313 272 197 154 143 199 148 30 229 232 199 192 215 242 260 271 273 257 282 296 287 289 253 141 84 50 29 11 359
177 172 156 147 130 125 186 222 269 128 277 273 210 227 225 170 229 231 169 157 161 174 182 182 236 194 220 254 269 262 252 266 268 284 261 291 288 243 48 122 70 44 30 31 24
171 159 139 128 124 165 213 211 211 100 309 272 233 252 174 157 250 188 188 155 195 201 189 227 238 223 252 241 218 277 231 250 267 307 274 171 292 229 233 100 50 24 4 349 1
162 150 144 128 121 172 214 137 146 73 289 224 182 155 146 174 321 181 162 96 189 186 137 228 179 194 199 199 174 232 229 266 240 208 299 187 248 299 103 168 175 16 344 338 341
158 145 137 102 352 279 94 118 87 80 243 249 143 171 149 243 295 134 156 112 166 181 206 227 274 207 207 193 206 265 258 275 260 132 248 240 209 271 231 202 155 5 343 333 322
149 145 149 139 171 319 240 87 98 190 277 191 182 168 175 184 212 210 168 188 163 148 227 244 224 211 147 155 77 86 77 312 313 189 243 151 217 239 136 59 115 97 333 303 295
141 142 159 141 140 137 109 94 190 191 231 37 132 145 178 169 223 214 198 223 32 80 112 201 311 171 94 112 146 94 163 176 236 251 285 337 255 281 95 116 126 226 259 290 314
128 138 150 146 145 154 139 188 193 223 245 170 60 142 209 103 130 91 119 83 160 171 186 180 258 348 78 122 130 110 195 10 289 262 277 242 280 259 161 195 183 297 334 317 315
128 133 124 138 139 150 167 183 198 280 277 240 194 169 164 115 96 95 86 339 52 28 43 25 306 284 47 89 51 160 130 95 74 258 255 246 245 254 225 228 208 271 289 294 311
99 96 117 138 111 140 193 181 192 19 38 23 95 99 98 128 113 122 119 109 25 45 69 98 119 268 42 187 169 106 171 103 206 170 239 269 259 312 308 308 249 257 291 327 312
116 105 157 206 111 172 168 174 123 285 355 43 93 64 118 134 115 173 159 62 352 159 154 54 137 243 225 276 201 200 220 178 163 259 231 202 252 223 181 210 219 249 286 287 300
87 96 57 33 157 174 183 145 152 153 213 150 132 103 59 132 130 211 121 15 14 68 117 178 10 353 311 1 43 227 256 139 126 86 215 251 262 198 241 244 246 253 253 275 297
116 121 125 232 200 161 142 147 145 201 243 219 121 111 111 131 31 148 102 20 354 41 49 90 175 178 245 271 108 286 292 285 245 238 261 251 280 289 295 312 310 306 293 292 279
91 156 177 173 182 134 114 141 162 199 203 183 103 179 154 141 114 132 77 23 28 0 64 93 198 219 280 312 319 283 274 283 274 264 257 279 276 284 245 262 254 272 301 304 305
129 151 93 143 134 136 170 188 188 203 169 183 144 138 123 139 165 174 136 144 223 10 62 36 251 141 274 214 259 270 273 270 273 280 255 256 285 262 259 287 287 284 284 290 313
51 45 93 151 153 156 179 173 180 139 12 143 135 106 108 147 132 134 142 162 171 150 178 165 165 155 262 277 285 273 249 257 256 268 274 281 258 257 273 275 294 287 268 267 281